Weather History for Vernal, UT

Change the Weather History Date:

Friday, April 4, 2014

  Actual Average Record
Temperature  
Mean Temperature 40 °F 43 °F  
Max Temperature 54 °F 56 °F 79 °F (1959)
Min Temperature 26 °F 31 °F 6 °F (1945)
Degree Days  
Heating Degree Days 25 22  
Month to date heating degree days 106 88  
Since 1 July heating degree days 6664 6419  
Cooling Degree Days 0 0  
Month to date cooling degree days 0 0  
Year to date cooling degree days 0 0  
Moisture  
Dew Point 20 °F    
Average Humidity 49    
Maximum Humidity 75    
Minimum Humidity 22    
Precipitation  
Precipitation 0.00 in 0.03 in 0.24 in (1942)
Month to date precipitation 0.11 0.09  
Year to date precipitation 1.32 1.79  
Sea Level Pressure  
Sea Level Pressure 29.98 in    
Wind  
Wind Speed 5 mph (WSW)    
Max Wind Speed 16 mph    
Max Gust Speed 20 mph    
Visibility 10 miles    
Events      
T = Trace of Precipitation, MM = Missing Value Source: NWS Daily Summary

Daily Weather History Graph

Daily Weather History Graph

Search for Another Location

Airport:

Trip Planner

Search our weather history database for the weather conditions in past years. The results will help you decide how hot, cold, wet, or windy it might be!

Date:

Astronomy

Apr. 04, 2014 Rise Set
Actual Time 6:56 AM MDT 7:45 PM MDT
Civil Twilight 6:29 AM MDT 8:13 PM MDT
Nautical Twilight 5:56 AM MDT 8:46 PM MDT
Astronomical Twilight 5:22 AM MDT 9:20 PM MDT
Moon 10:15 AM MDT (4/4) 12:07 AM MDT (4/4)
Length of Visible Light 13h 44m
Length of Day
12h 49m
Waxing Crescent, 26% of the Moon is Illuminated
Apr 4
Waxing Crescent
Apr 7
First Quarter
Apr 15
Full
Apr 22
Last Quarter
Apr 29
New

Hourly Weather History & Observations

Time (MDT) Temp. Windchill Dew Point Humidity Pressure Visibility Wind Dir Wind Speed Gust Speed Precip Events Conditions
12:53 AM 32.0 °F 27.5 °F 21.9 °F 66% 30.08 in 10.0 mi NW 4.6 mph - N/A   Clear
1:53 AM 30.0 °F 25.2 °F 21.0 °F 69% 30.07 in 10.0 mi WNW 4.6 mph - N/A   Clear
2:53 AM 30.0 °F 25.2 °F 19.9 °F 66% 30.07 in 10.0 mi NW 4.6 mph - N/A   Clear
3:53 AM 30.0 °F 25.2 °F 19.9 °F 66% 30.04 in 10.0 mi West 4.6 mph - N/A   Clear
4:53 AM 30.0 °F - 19.0 °F 64% 30.05 in 10.0 mi Calm Calm - N/A   Clear
5:53 AM 28.0 °F - 19.0 °F 69% 30.06 in 10.0 mi Calm Calm - N/A   Clear
6:53 AM 26.1 °F 20.5 °F 18.0 °F 71% 30.07 in 8.0 mi WNW 4.6 mph - N/A   Clear
7:53 AM 28.9 °F - 21.0 °F 72% 30.09 in 10.0 mi Calm Calm - N/A   Clear
8:53 AM 34.0 °F 31.0 °F 24.1 °F 67% 30.08 in 10.0 mi Variable 3.5 mph - N/A   Clear
9:53 AM 37.9 °F - 24.1 °F 57% 30.08 in 10.0 mi Calm Calm - N/A   Clear
10:53 AM 41.0 °F 39.0 °F 24.1 °F 51% 30.06 in 10.0 mi ENE 3.5 mph - N/A   Clear
11:53 AM 45.0 °F 41.2 °F 24.1 °F 44% 30.01 in 10.0 mi SE 6.9 mph - N/A   Clear
12:53 PM 46.9 °F - 21.9 °F 37% 29.98 in 10.0 mi SSE 5.8 mph - N/A   Clear
1:53 PM 50.0 °F - 17.1 °F 27% 29.95 in 10.0 mi WSW 5.8 mph - N/A   Clear
2:53 PM 52.0 °F - 15.1 °F 23% 29.91 in 10.0 mi SSW 9.2 mph - N/A   Clear
3:53 PM 52.0 °F - 15.1 °F 23% 29.88 in 10.0 mi SW 9.2 mph 18.4 mph N/A   Scattered Clouds
4:53 PM 53.1 °F - 15.1 °F 22% 29.86 in 10.0 mi SSW 11.5 mph 20.7 mph N/A   Mostly Cloudy
5:53 PM 52.0 °F - 16.0 °F 24% 29.86 in 10.0 mi West 8.1 mph - N/A   Overcast
6:53 PM 50.0 °F - 19.9 °F 31% 29.89 in 10.0 mi SSW 10.4 mph - N/A   Scattered Clouds
7:53 PM 48.0 °F - 18.0 °F 30% 29.89 in 10.0 mi West 3.5 mph - N/A   Mostly Cloudy
8:53 PM 45.0 °F 41.2 °F 21.9 °F 40% 29.91 in 10.0 mi West 6.9 mph - N/A   Scattered Clouds
9:53 PM 45.0 °F 42.6 °F 23.0 °F 42% 29.91 in 10.0 mi West 4.6 mph - N/A   Mostly Cloudy
10:53 PM 45.0 °F 43.5 °F 23.0 °F 42% 29.89 in 10.0 mi SE 3.5 mph - N/A   Mostly Cloudy
11:53 PM 43.0 °F 41.3 °F 26.1 °F 51% 29.88 in 10.0 mi WNW 3.5 mph - N/A   Overcast